TimeEDT,TemperatureF,Dew PointF,Humidity,Sea Level PressureIn,VisibilityMPH,Wind Direction,Wind SpeedMPH,Gust SpeedMPH,PrecipitationIn,Events,Conditions,WindDirDegrees,DateUTC
12:15 AM,73.4,71.6,94,30.18,10.0,East,3.5,-,N/A,,Clear,80,2012-10-04 04:15:00
12:35 AM,73.4,71.6,94,30.18,10.0,East,4.6,-,N/A,,Clear,100,2012-10-04 04:35:00
12:55 AM,71.6,71.6,100,30.17,10.0,ESE,4.6,-,N/A,,Clear,110,2012-10-04 04:55:00
1:15 AM,71.6,71.6,100,30.18,10.0,Calm,Calm,-,N/A,,Clear,0,2012-10-04 05:15:00
1:35 AM,73.4,71.6,94,30.18,10.0,Calm,Calm,-,N/A,,Clear,0,2012-10-04 05:35:00
1:55 AM,71.6,71.6,100,30.17,10.0,East,3.5,-,N/A,,Clear,100,2012-10-04 05:55:00
2:15 AM,73.4,71.6,94,30.16,10.0,East,4.6,-,N/A,,Clear,80,2012-10-04 06:15:00
2:35 AM,73.4,71.6,94,30.15,10.0,East,4.6,-,N/A,,Clear,80,2012-10-04 06:35:00
2:55 AM,73.4,71.6,94,30.15,10.0,East,4.6,-,N/A,,Clear,80,2012-10-04 06:55:00
3:15 AM,73.4,71.6,94,30.13,10.0,East,5.8,-,N/A,,Clear,90,2012-10-04 07:15:00
3:35 AM,73.4,71.6,94,30.13,10.0,ENE,6.9,-,N/A,,Clear,60,2012-10-04 07:35:00
3:55 AM,73.4,71.6,94,30.13,10.0,North,-9999.0,-,N/A,,Clear,0,2012-10-04 07:55:00
4:15 AM,73.4,71.6,94,30.13,10.0,ENE,5.8,-,N/A,,Clear,70,2012-10-04 08:15:00
4:35 AM,71.6,71.6,100,30.13,10.0,Calm,Calm,-,N/A,,Clear,0,2012-10-04 08:35:00
4:55 AM,71.6,71.6,100,30.14,10.0,Calm,Calm,-,N/A,,Clear,0,2012-10-04 08:55:00
5:15 AM,71.6,71.6,100,30.13,10.0,East,6.9,-,N/A,,Clear,90,2012-10-04 09:15:00
5:35 AM,73.4,71.6,94,30.14,10.0,ENE,3.5,-,N/A,,Clear,70,2012-10-04 09:35:00
5:55 AM,73.4,71.6,94,30.16,10.0,North,4.6,-,N/A,,Scattered Clouds,350,2012-10-04 09:55:00
6:15 AM,71.6,71.6,100,30.16,10.0,NNE,3.5,-,N/A,,Scattered Clouds,30,2012-10-04 10:15:00
6:35 AM,71.6,71.6,100,30.17,10.0,NNE,3.5,-,N/A,,Clear,30,2012-10-04 10:35:00
6:51 AM,73.4,71.6,94,30.17,10.0,Variable,4.6,-,N/A,,Mostly Cloudy,0,2012-10-04 10:51:00
8:01 AM,73.4,73.4,100,30.18,5.0,ENE,4.6,-,N/A,,Overcast,70,2012-10-04 12:01:00
8:55 AM,78.8,75.2,89,30.20,7.0,NNE,3.5,-,N/A,,Mostly Cloudy,30,2012-10-04 12:55:00
9:50 AM,80.6,75.2,84,30.20,8.0,East,4.6,-,N/A,,Mostly Cloudy,80,2012-10-04 13:50:00
10:30 AM,82.4,75.2,79,30.19,10.0,East,5.8,-,N/A,,Mostly Cloudy,100,2012-10-04 14:30:00
10:53 AM,82.4,75.2,79,30.19,12.0,East,5.8,-,N/A,,Mostly Cloudy,80,2012-10-04 14:53:00
11:52 AM,84.2,73.4,70,30.19,15.0,ESE,5.8,-,N/A,,Mostly Cloudy,110,2012-10-04 15:52:00
12:50 PM,87.8,73.4,62,30.17,15.0,East,5.8,-,N/A,,Mostly Cloudy,80,2012-10-04 16:50:00
1:55 PM,89.6,71.6,55,30.14,15.0,East,4.6,-,N/A,,Mostly Cloudy,90,2012-10-04 17:55:00
2:50 PM,89.6,71.6,55,30.11,15.0,East,3.5,-,N/A,,Mostly Cloudy,90,2012-10-04 18:50:00
3:50 PM,84.2,73.4,70,30.08,15.0,North,5.8,-,N/A,,Mostly Cloudy,360,2012-10-04 19:50:00
4:50 PM,77.0,69.8,78,30.11,1.0,South,33.4,47.2,N/A,Rain-Thunderstorm,Heavy Thunderstorms and Rain,180,2012-10-04 20:50:00
5:10 PM,71.6,69.8,94,30.12,3.0,SW,11.5,-,N/A,Rain-Thunderstorm,Thunderstorms and Rain,220,2012-10-04 21:10:00
5:50 PM,71.6,68.0,88,30.14,7.0,WSW,11.5,-,N/A,Rain-Thunderstorm,Light Thunderstorms and Rain,240,2012-10-04 21:50:00
6:50 PM,71.6,69.8,94,30.13,8.0,WSW,6.9,-,N/A,Rain,Light Rain,240,2012-10-04 22:50:00
7:50 PM,71.6,69.8,94,30.17,7.0,NNW,3.5,-,N/A,Rain,Rain,330,2012-10-04 23:50:00
8:50 PM,71.6,71.6,100,30.15,8.0,NNE,9.2,16.1,N/A,Rain,Light Rain,30,2012-10-05 00:50:00
9:50 PM,73.4,69.8,88,30.16,10.0,Calm,Calm,-,N/A,,Mostly Cloudy,0,2012-10-05 01:50:00
10:55 PM,71.6,68.0,88,30.15,10.0,NE,6.9,-,N/A,,Clear,40,2012-10-05 02:55:00
11:15 PM,71.6,69.8,94,30.16,10.0,NNE,5.8,-,N/A,,Clear,30,2012-10-05 03:15:00
11:35 PM,71.6,69.8,94,30.15,10.0,NNE,4.6,-,N/A,,Clear,30,2012-10-05 03:35:00
11:55 PM,71.6,69.8,94,30.15,10.0,NNE,4.6,-,N/A,,Clear,30,2012-10-05 03:55:00